#timestamp,LO_Frequency,Hit,StdDev 
1637935215.4,286047001.5,N
1637935235.2,286047002.5,N
1637935255.1,286047002.6,N
1637935256.0,286047002.6,N
1637935275.8,286047004.2,N
1637935295.6,286047001.3,N
1637935315.5,286047002.8,N
1637935335.3,286047002.5,N
1637935355.1,286046999.9,N
1637935375.9,286047002.1,N
1637935395.7,286047002.4,N
1637935415.6,286047002.7,N
1637935435.4,286047001.5,N
1637935455.2,286047001.7,N
1637935475.1,286047001.7,N
1637935476.0,286047001.7,N
1637935495.8,286046999.7,N
1637935515.6,286047002.8,N
1637935535.5,286047000.3,N
1637935555.3,286047001.6,N
1637935575.2,286047002.2,N
1637935595.9,286047002.4,N
1637935615.7,286047001.0,N
1637935635.6,286046998.1,N
1637935655.4,286047000.1,N
1637935675.3,286047000.2,N
1637935695.1,286047000.3,N
1637935696.0,286047000.3,N
1637935715.8,286047000.3,N
1637935735.7,286047002.8,N
1637935755.5,286047002.1,N
1637935775.3,286047002.5,N
1637935795.2,286047002.7,N
1637935815.0,286047004.0,Y
1637935815.9,286047004.0,P
1637935835.8,286047002.4,N
1637935855.6,286047002.5,N
1637935875.4,286047002.0,N
1637935895.3,286047002.3,N
1637935915.1,286047001.9,N
1637935935.9,286046999.7,N
1637935955.7,286046999.8,N
1637935975.5,286047000.5,N
1637935995.4,286047000.3,N
1637936015.2,286047002.7,N
1637936035.0,286047000.7,N
1637936036.0,286047000.7,N
1637936055.8,286046999.5,N
1637936075.6,286046996.5,N
1637936095.5,286046998.9,N
1637936115.1,286046999.4,N
1637936116.0,286046999.4,N
1637936135.8,286047000.8,N
1637936155.6,286046998.4,N
1637936175.5,286047000.5,N
1637936195.3,286047000.6,N
1637936215.1,286047000.7,N
1637936235.9,286046998.2,N
1637936255.7,286046998.4,N
1637936275.6,286047000.3,N
1637936295.4,286046998.7,N
1637936315.2,286047001.1,N
1637936335.1,286046999.3,N
1637936336.0,286046999.3,N
1637936355.8,286046997.0,N
1637936375.7,286046997.4,N
1637936395.5,286046997.7,N
1637936415.3,286046999.0,N
1637936435.2,286046999.2,N
1637936455.0,286046999.3,N
1637936455.9,286046999.3,N
1637936475.8,286046995.3,Y
1637936495.6,286046997.3,P
1637936515.4,286046995.3,P
1637936535.3,286046995.4,N
1637936555.1,286046994.9,Y
1637936575.8,286047000.2,P
1637936595.7,286047001.1,N
1637936615.5,286047000.7,N
1637936635.4,286046998.5,N
1637936655.2,286047000.7,N
1637936675.0,286046999.9,N
1637936675.9,286046999.9,N
1637936695.8,286047000.4,N
1637936715.6,286047000.4,N
1637936735.5,286046998.6,N
1637936755.3,286046999.6,N
1637936775.1,286046998.3,N
1637936795.9,286046998.4,N
1637936815.7,286046998.5,N
1637936835.5,286047001.1,N
1637936855.4,286047001.2,N
1637936875.2,286046998.6,N
1637936895.1,286047001.0,N
1637936896.0,286047001.0,N
1637936915.8,286046998.2,N
1637936935.6,286046999.2,N
1637936955.5,286046998.3,N
1637936975.3,286046999.5,N
1637936995.1,286046998.6,N
1637937015.9,286047000.0,N
1637937035.7,286047000.9,N
1637937055.6,286047001.2,N
1637937075.4,286047000.8,N
1637937095.2,286046998.1,N
1637937115.1,286046999.4,N
1637937116.0,286046999.4,N
1637937135.8,286046998.9,N
1637937155.7,286046996.9,N
1637937175.5,286046997.2,N
1637937195.3,286046999.5,N
1637937215.2,286046997.3,N
1637937235.0,286046995.0,Y
1637937235.9,286046995.0,P
1637937255.7,286046997.8,N
1637937275.6,286046996.9,N
1637937295.4,286046999.3,N
1637937315.3,286046999.4,N
1637937335.1,286046999.0,N
1637937336.0,286046999.0,N
1637937355.8,286046997.3,N
1637937375.7,286046996.8,N
1637937395.5,286046997.7,N
1637937415.3,286046997.2,N
1637937435.2,286046995.0,Y
1637937455.0,286046998.1,P
1637937455.9,286046998.1,P
1637937475.8,286046998.6,P
1637937495.6,286046998.3,Y
1637937515.4,286047002.5,P
1637937535.3,286047002.0,N
1637937555.1,286047001.4,N
1637937575.9,286047001.9,N
1637937595.7,286047002.2,N
1637937615.5,286047004.3,N
1637937635.4,286047001.3,N
1637937655.2,286047002.0,N
1637937675.0,286047002.5,N
1637937675.9,286047002.5,N
1637937695.8,286046999.7,N
1637937715.6,286047000.3,N
1637937735.5,286046999.9,N
1637937755.3,286046999.7,N
1637937775.1,286047000.7,N
1637937795.9,286047000.7,N
1637937815.7,286047000.3,N
1637937835.5,286046999.8,N
1637937855.4,286047002.7,N
1637937875.2,286047001.1,N
1637937895.1,286047000.6,N
1637937896.0,286047000.6,N
1637937915.8,286047001.1,N
1637937935.6,286046999.9,N
1637937955.5,286047002.2,N
1637937975.3,286047001.9,N
1637937995.1,286047002.3,N
1637938015.9,286047002.4,N
1637938035.7,286047002.3,N
1637938055.6,286047002.5,N
1637938075.4,286046999.8,N
1637938095.2,286047002.8,N
1637938115.1,286046999.9,N
1637938116.0,286046999.9,N
1637938135.8,286047001.0,N
1637938155.6,286047000.5,N
1637938175.5,286047000.3,N
1637938195.3,286047000.0,N
1637938215.2,286046998.1,N
1637938235.9,286046998.5,N
1637938255.7,286046998.3,N
1637938275.6,286047000.8,N
1637938295.4,286047000.3,N
1637938315.2,286047000.7,N
1637938335.1,286046996.5,N
1637938336.0,286046996.5,N
1637938355.8,286046997.2,N
1637938375.7,286046998.9,N
1637938395.5,286046999.1,N
1637938415.3,286046997.2,N
1637938435.2,286046998.0,N
1637938455.0,286046997.0,N
1637938455.9,286046997.0,N
1637938475.8,286046999.5,N
1637938495.6,286046998.6,N
1637938515.4,286046998.8,N
1637938565.3,286046999.0,E
1637938575.2,286046998.8,N
1637938595.1,286046998.4,P
1637938596.0,286046998.4,P
1637938615.8,286046998.4,Y
1637938635.6,286047000.4,P
1637938655.5,286046999.9,N
1637938675.3,286046999.7,N
1637938695.2,286047002.8,Y
1637938715.9,286047001.9,P
1637938735.7,286047001.3,N
1637938755.6,286047002.4,N
1637938775.4,286047001.5,N
1637938795.2,286047002.8,N
